Location: Zagreb
(45.8000°N, 16.0000°E)
Time: 11:22:50
(UTC+01:00)

Altair - Visible Passes

Search period start: 19 January 2022 00:00
Search period end: 29 January 2022 00:00
Orbit: 1501 x 1683 km, 47.2° (Epoch: 18 January)

Date Brightness Start Highest point End Pass type
(mag) Time Alt. Az. Time Alt. Az. Time Alt. Az.
19 Jan 9.6 01:30:03 14° E 01:30:03 14° E 01:31:27 10° ENE visible
19 Jan 7.8 03:28:04 65° ESE 03:28:04 65° ESE 03:37:04 10° ENE visible
19 Jan 7.6 05:26:06 31° W 05:31:57 83° N 05:42:08 10° E visible
20 Jan 8.1 03:04:19 52° E 03:04:19 52° E 03:11:50 10° ENE visible
20 Jan 7.6 05:02:20 41° W 05:06:41 84° N 05:16:53 10° E visible
21 Jan 8.5 02:40:32 40° E 02:40:32 40° E 02:46:35 10° ENE visible
21 Jan 7.5 04:38:33 54° W 04:41:26 85° N 04:51:39 10° E visible
21 Jan 7.7 06:36:34 10° WNW 06:46:43 88° SSW 06:56:48 10° ESE visible
22 Jan 8.9 02:16:43 31° E 02:16:43 31° E 02:21:22 10° ENE visible
22 Jan 7.4 04:14:43 71° W 04:16:11 86° N 04:26:24 10° E visible
22 Jan 7.7 06:12:45 16° WNW 06:21:29 90° NNE 06:31:35 10° ESE visible
23 Jan 9.2 01:52:52 23° ENE 01:52:52 23° ENE 01:56:06 10° ENE visible
23 Jan 7.5 03:50:53 88° NNW 03:50:55 88° NNW 04:01:10 10° E visible
23 Jan 7.7 05:48:54 22° WNW 05:56:14 88° NNE 06:06:22 10° ESE visible
24 Jan 9.5 01:29:01 17° ENE 01:29:01 17° ENE 01:30:51 10° ENE visible
24 Jan 7.7 03:27:02 72° ENE 03:27:02 72° ENE 03:35:56 10° ENE visible
24 Jan 7.6 05:25:03 30° WNW 05:30:59 87° NNE 05:41:09 10° ESE visible
25 Jan 9.7 01:05:09 12° ENE 01:05:09 12° ENE 01:05:35 10° ENE visible
25 Jan 8.0 03:03:10 56° ENE 03:03:10 56° ENE 03:10:41 10° ENE visible
25 Jan 7.6 05:01:10 40° WNW 05:05:43 85° N 05:15:55 10° E visible
26 Jan 8.4 02:39:17 43° ENE 02:39:17 43° ENE 02:45:26 10° ENE visible
26 Jan 7.6 04:37:18 52° WNW 04:40:27 84° N 04:50:40 10° E visible
26 Jan 7.9 06:35:19 10° WNW 06:45:19 64° SSW 06:55:11 10° SE visible
27 Jan 8.8 02:15:25 33° ENE 02:15:25 33° ENE 02:20:12 10° ENE visible
27 Jan 7.5 04:13:26 66° WNW 04:15:12 84° N 04:25:25 10° E visible
27 Jan 7.8 06:11:27 15° WNW 06:20:08 68° SSW 06:30:03 10° SE visible
28 Jan 9.1 01:51:34 25° ENE 01:51:34 25° ENE 01:54:57 10° ENE visible
28 Jan 7.5 03:49:34 82° NNW 03:49:56 83° N 04:00:10 10° E visible
28 Jan 7.7 05:47:35 21° WNW 05:54:56 71° SSW 06:04:56 10° SE visible
